STARLINK-1171 (45062 NORAD) Tracking and Keplerian Element Data

This shows tracking and keplerian element data for the satellite.

Feedback or suggestion? Click here.




ElementValue
Catalog45062
NameSTARLINK-1171
Epoch Orbit1024
Epoch Day93.91667824
Epoch Year2020
RAAN293.3846
Inclination53.0033
Eccentricity0.000149
Argument of Perigee76.9705
Mean Anonmoly52.0362
Mean Motion15.03919236
Decay Rate0.00116716
L11 45062U 20006U 20093.91667824 .00116716 00000-0 82566-2 0 9993
L22 45062 53.0033 293.3846 0001490 76.9705 52.0362 15.03919236 10240

Live tracking and technical data element details for STARLINK-1171 (NORAD 45062). STARLINK-1171 can be tracked NOW for your location showing map with azimuth and elevation plus other details from your city location.

Track the satellite on the map from your city or location and see movement details for azimuth, elevation, latitude, longitude, range, height, and movement on the map or in text.







IsCatalogInMostPopularTable: catalog: 45062, numindb: 12
Update: records affected: 1



GetName: 45062 STARLINK-1171

Hit Count: updated at: Sat, 04 Apr 2020 00:11:44 GMT